Theta_e
334 334 335 336 335 336 335 335 335 335 335 335 335 336 336 336 336 337 339 340 341 340 342 344 344 345 345 344 343 342 343 342 341 340 339 337 338 338 339 341 342 343 343 342 343 344 345 346 349 353 355 356 356 356 356 356 356 357 354 354 354 355 354
333 334 335 336 336 336 336 336 336 336 336 335 335 336 337 336 336 336 338 340 341 341 341 343 344 344 345 345 344 343 342 342 342 343 341 340 340 339 340 340 341 342 343 344 343 344 343 344 348 351 353 355 356 356 356 355 355 354 353 353 353 352 354
333 334 334 335 336 336 337 337 337 337 336 336 336 336 336 337 337 336 338 339 340 341 341 343 344 344 345 345 344 343 342 342 341 341 340 340 339 338 340 341 341 342 344 345 344 344 345 343 346 350 353 354 355 355 355 355 355 355 353 353 354 353 352
333 334 334 335 336 337 338 337 337 337 337 337 336 336 336 337 337 337 338 339 339 340 340 342 344 344 344 344 344 344 343 342 341 341 341 341 341 339 339 341 342 342 343 344 346 346 346 344 345 349 357 353 354 354 355 355 355 355 353 353 353 354 353
333 334 334 334 335 336 337 338 337 337 337 338 337 338 337 338 338 338 337 339 340 340 341 341 344 345 345 345 345 345 345 343 341 340 340 341 342 341 338 339 341 342 343 345 346 347 345 344 344 347 351 353 354 354 354 355 355 355 354 353 353 353 353
332 333 333 334 335 336 337 338 339 338 338 337 337 337 338 338 338 338 338 339 340 341 341 341 342 345 344 344 344 344 345 345 344 342 340 340 341 341 340 339 340 342 344 345 347 346 346 345 345 346 349 353 354 354 354 355 355 355 355 354 353 353 353
331 333 333 334 335 336 337 338 339 339 339 339 339 339 339 338 338 338 339 338 340 340 340 341 342 343 345 345 344 344 343 343 344 343 341 340 340 341 342 341 341 341 343 346 347 347 346 346 346 345 348 351 353 353 353 354 355 355 355 354 353 352 352
330 332 334 334 335 336 337 338 339 340 339 339 339 338 338 338 338 338 339 339 339 340 341 341 342 343 344 345 345 344 343 343 344 344 343 341 339 340 340 342 343 341 341 341 346 347 347 346 347 347 347 348 352 353 353 353 354 355 354 354 353 352 354
331 332 333 334 335 336 337 338 339 339 338 338 338 338 338 339 338 338 339 340 340 340 340 342 343 344 345 345 345 345 344 344 343 344 343 341 341 340 340 341 342 344 342 340 340 346 347 347 347 347 347 347 349 351 352 353 353 354 355 354 354 353 353
330 331 332 334 335 336 338 338 339 339 338 338 338 337 338 339 339 339 339 340 341 340 340 342 343 345 345 346 346 346 345 345 345 344 343 342 342 341 341 341 341 344 344 343 341 341 346 347 346 346 346 348 349 350 351 352 353 354 355 355 354 354 353
329 331 332 333 334 335 336 337 338 338 338 338 338 338 338 339 339 339 340 340 341 342 342 342 344 344 345 346 346 346 346 346 346 345 344 344 343 342 342 342 341 343 344 345 344 343 343 346 347 345 344 346 348 349 350 351 352 353 354 355 355 355 355
333 334 332 332 333 333 335 337 338 338 338 339 339 339 339 339 340 340 341 341 342 343 343 343 344 344 345 346 346 347 346 346 346 346 345 345 345 344 343 343 343 342 344 346 345 345 344 344 346 348 345 345 345 348 350 351 352 353 353 355 355 355 355
325 329 332 335 336 337 337 339 337 338 339 339 339 339 340 340 340 341 341 342 343 344 344 345 345 345 345 346 346 347 347 347 347 347 347 347 346 346 345 344 344 343 342 345 346 347 346 346 346 348 348 347 346 346 348 350 352 352 353 354 355 355 355
326 324 326 330 333 335 336 337 337 339 341 339 340 340 341 341 341 342 342 342 344 345 346 346 346 345 345 345 346 346 347 348 348 348 348 348 348 347 346 345 344 344 344 344 344 346 347 347 346 347 349 349 348 347 348 349 350 352 352 353 354 355 355
319 320 322 324 327 329 332 335 337 337 338 339 340 340 341 342 342 343 343 344 345 346 347 348 347 346 346 346 346 346 348 349 349 349 349 349 348 347 347 346 345 345 344 344 344 346 347 348 348 347 347 349 349 349 349 349 350 352 352 352 353 354 354
318 319 320 321 324 326 328 330 334 336 338 339 340 340 341 342 343 343 343 344 346 347 349 349 348 347 347 347 347 348 349 349 350 349 349 349 348 348 347 347 346 345 345 344 345 345 346 347 348 348 347 348 349 349 350 349 350 350 343 345 353 353 354
317 318 319 320 322 324 325 327 330 333 335 338 339 341 343 343 343 344 345 345 346 348 350 351 349 349 348 348 349 349 350 350 350 350 349 349 349 348 348 348 347 346 345 345 345 345 346 347 347 348 348 347 348 349 350 350 350 341 335 336 341 352 353
316 317 318 319 321 322 323 325 327 330 333 335 339 340 341 341 344 343 344 344 346 349 351 352 351 350 350 350 351 351 351 351 351 351 350 350 349 349 349 349 348 347 346 346 346 347 347 347 347 348 348 348 348 348 350 351 344 334 332 333 334 342 353
318 318 318 319 320 321 322 323 325 328 331 334 337 340 341 343 343 342 346 344 346 348 351 352 352 352 352 352 352 352 352 352 352 352 351 351 351 350 350 349 348 347 347 347 348 348 348 348 348 348 349 349 347 347 349 350 341 332 330 331 331 333 345
317 319 320 320 320 321 322 324 325 327 330 334 337 340 343 345 345 345 345 346 347 348 347 351 352 352 352 353 353 353 354 353 353 353 353 353 352 351 350 349 348 348 348 348 349 348 348 349 349 349 349 349 348 348 348 349 341 331 328 328 329 330 337
315 318 319 319 320 321 322 323 325 326 328 332 336 338 339 340 343 346 345 344 343 344 345 345 347 351 354 353 354 354 354 354 354 353 353 353 353 352 351 350 349 349 349 349 348 348 348 349 349 349 350 350 350 348 348 349 337 329 326 325 325 328 333
315 317 318 319 319 321 322 324 325 327 329 334 335 336 338 338 341 343 345 347 345 344 344 344 344 345 347 349 352 353 355 355 354 354 354 353 353 352 351 350 350 349 349 349 349 349 350 350 350 350 350 350 350 349 348 350 332 328 325 323 323 326 338
318 317 317 320 321 322 325 326 326 328 331 333 334 336 336 338 340 342 344 346 346 344 344 344 343 344 345 348 349 350 351 353 355 354 354 354 353 352 352 351 350 350 350 349 348 348 348 349 350 351 351 350 350 349 349 349 337 325 323 322 322 325 340
318 319 318 320 321 322 324 325 326 328 331 332 334 334 335 337 338 340 343 346 346 345 345 344 344 346 346 347 349 350 350 350 350 354 355 354 353 353 352 352 352 351 351 349 348 348 349 349 350 351 351 350 350 350 349 349 341 323 320 320 320 329 341
317 319 320 318 320 320 322 324 326 329 330 330 330 332 335 337 339 340 341 344 347 348 348 347 346 347 347 347 350 351 351 351 351 351 354 355 354 354 353 352 352 352 352 351 350 349 350 350 350 350 351 351 351 351 349 349 343 323 320 319 318 328 343
316 317 317 320 321 322 323 325 325 327 327 327 328 330 333 336 337 340 342 343 346 349 352 354 354 352 352 351 351 352 353 354 352 354 356 356 355 355 354 354 353 352 351 351 351 350 350 350 350 350 351 352 351 351 350 349 350 341 319 317 316 320 344
318 318 317 318 319 324 322 324 324 326 326 326 327 328 331 333 334 337 340 341 343 345 345 345 346 349 352 354 355 353 352 355 357 357 358 358 357 356 356 355 353 353 352 351 351 350 350 349 350 350 350 351 352 351 351 351 350 346 320 316 315 316 328
317 316 319 320 322 322 322 323 323 325 325 325 327 327 327 328 329 331 333 336 338 339 340 342 342 344 346 349 352 355 356 356 358 360 360 359 358 356 355 355 355 354 352 352 351 349 349 349 349 349 350 351 352 352 351 351 343 351 325 317 314 314 317
315 315 316 317 320 321 322 321 322 323 322 324 325 324 325 325 325 327 330 330 332 335 337 338 340 342 344 347 351 354 356 356 357 358 360 359 358 356 355 355 354 353 353 351 350 349 349 349 349 349 349 350 351 352 352 352 349 334 341 318 314 313 313
315 316 315 318 321 322 322 321 322 321 321 322 324 323 324 324 323 325 327 326 329 332 335 336 338 340 342 346 350 354 356 357 358 359 359 359 359 357 355 354 354 353 353 352 350 349 348 349 349 348 348 348 349 351 351 352 352 338 330 331 314 313 312
314 314 315 317 319 321 322 321 321 320 320 321 322 322 323 323 322 323 323 325 328 330 333 334 336 338 341 345 349 351 354 356 357 358 359 359 359 356 355 354 354 352 352 352 350 350 348 348 348 348 348 347 348 349 350 352 351 351 337 326 320 314 313
314 315 315 317 319 320 321 321 322 319 319 320 321 320 322 322 322 321 322 325 327 328 331 332 334 337 341 345 347 348 352 354 355 357 358 359 359 358 357 355 354 353 352 351 351 350 349 348 348 348 347 347 348 348 350 351 351 350 349 335 328 320 314
312 313 314 315 319 321 319 320 320 319 319 319 320 320 321 320 321 322 323 324 325 327 329 331 333 337 340 343 345 347 351 353 354 355 357 358 358 358 358 356 355 353 352 352 351 350 350 349 348 348 347 347 348 348 349 350 350 350 350 346 341 336 328
311 313 315 316 318 320 318 318 319 319 318 318 319 319 320 320 320 321 322 323 324 326 327 329 333 336 339 341 344 348 351 352 354 354 355 357 357 357 356 356 356 354 352 352 352 351 350 349 348 348 348 348 348 348 349 349 350 350 350 349 344 341 336
312 313 314 315 317 319 316 318 319 319 318 318 319 319 319 319 320 321 320 321 323 325 325 328 332 336 338 340 344 347 348 349 352 353 355 356 356 357 358 356 356 355 355 356 356 355 353 351 351 351 351 350 349 348 347 348 349 351 336 349 332 339 339
312 313 314 316 317 316 316 319 320 319 318 318 318 318 318 318 319 320 320 321 322 324 324 327 331 335 335 337 341 344 344 344 348 352 353 355 356 356 356 349 336 346 356 355 344 336 333 332 351 354 353 351 352 352 349 349 351 334 325 323 320 318 321
311 313 314 316 316 314 315 318 320 319 317 317 318 318 318 318 319 319 319 321 321 322 323 326 330 332 332 333 335 338 341 342 345 349 353 355 356 356 354 354 347 318 316 322 332 328 320 317 321 326 333 348 352 347 332 332 330 323 317 316 313 313 314
312 313 315 316 315 315 316 317 318 316 316 316 317 317 317 317 317 317 318 320 321 321 322 325 328 328 329 330 332 335 338 341 343 345 349 353 355 356 354 354 352 347 322 311 315 319 313 313 313 315 317 322 333 344 349 327 317 316 312 312 311 311 311
Wind_Speed
15 15 15 15 16 17 17 17 17 17 18 17 18 19 18 17 17 16 16 17 18 17 16 16 16 14 15 14 13 12 11 10 9 9 8 8 8 8 8 7 7 7 6 7 7 8 7 4 5 6 5 5 6 6 5 4 4 4 3 3 3 3 5
16 16 16 16 16 17 17 17 17 16 16 17 17 19 18 18 17 17 17 18 19 19 17 16 16 15 16 15 13 13 12 12 11 9 8 7 6 6 7 8 8 8 7 7 6 5 4 5 5 5 6 5 6 5 5 5 4 4 4 3 4 4 4
17 17 17 17 17 17 18 16 16 17 17 16 17 17 19 19 19 20 18 18 19 18 17 18 17 16 15 14 13 14 13 12 11 10 10 10 9 9 8 7 8 7 8 7 5 6 5 5 5 5 6 6 6 5 5 5 4 4 4 3 4 5 4
18 19 20 20 18 17 18 18 18 17 17 18 19 20 20 20 19 18 18 19 20 18 18 17 17 16 15 15 15 14 14 13 13 12 12 10 9 8 7 7 7 6 6 7 8 7 6 6 6 6 6 6 6 5 5 6 5 4 4 3 4 4 5
20 21 18 17 18 18 18 19 19 19 19 19 19 19 19 18 17 16 16 17 19 21 20 19 16 15 14 14 12 12 14 15 13 12 11 10 8 6 7 8 8 8 9 8 6 6 5 5 6 6 6 6 6 5 6 5 5 4 4 4 4 4 5
18 18 17 18 19 19 20 20 20 20 19 19 19 18 17 18 16 18 18 17 17 17 17 17 17 16 15 15 13 13 12 13 13 12 11 10 10 9 9 9 9 9 8 9 7 7 7 6 6 6 7 7 7 6 6 6 6 5 5 4 5 4 5
15 18 18 19 19 19 20 20 20 19 19 18 17 16 16 16 18 18 16 17 18 18 18 17 17 16 15 14 14 14 14 13 13 13 11 10 9 10 9 8 8 9 9 6 7 7 8 8 8 8 8 8 7 7 6 6 6 5 5 5 5 5 4
14 15 17 19 19 18 18 18 18 18 17 16 15 16 17 17 17 17 17 17 17 17 17 18 17 16 15 14 14 15 15 14 13 13 11 11 10 10 10 9 8 7 5 7 7 7 8 9 8 8 8 8 8 7 7 6 6 5 5 6 6 5 4
17 17 17 17 18 18 18 18 17 17 18 18 18 17 18 17 17 17 18 17 16 17 18 18 18 16 15 14 14 16 15 14 13 12 13 13 12 12 11 10 9 7 7 7 6 6 7 8 8 8 7 8 8 8 7 7 7 6 6 6 7 7 5
11 13 12 12 11 12 14 14 15 14 15 16 16 16 17 17 17 17 17 17 16 19 19 17 16 15 15 14 15 15 14 13 13 13 13 13 12 13 12 11 9 8 8 8 6 7 6 7 8 7 7 8 7 7 7 7 7 7 7 8 8 8 8
4 7 10 12 13 12 12 12 15 15 16 16 16 15 16 16 16 17 17 16 17 17 17 16 15 15 15 15 16 15 14 14 13 14 14 14 12 13 13 12 10 9 10 9 8 8 7 6 6 6 6 8 8 8 8 8 8 8 8 8 7 8 8
20 17 10 2 4 7 11 13 14 14 15 15 16 16 16 16 16 16 16 17 16 16 15 16 14 15 15 15 15 15 15 15 14 15 15 15 14 14 13 12 11 10 10 10 10 9 8 8 7 7 8 8 8 8 9 8 8 9 9 9 8 7 7
17 17 17 16 12 8 3 2 7 11 13 13 14 14 14 15 16 15 15 16 15 15 15 15 15 14 15 15 15 14 15 15 15 14 14 14 13 12 12 12 12 12 11 10 11 11 10 9 9 8 8 9 8 8 9 9 8 9 9 9 8 8 8
22 21 19 18 20 19 15 10 2 2 2 5 8 9 10 11 13 14 14 15 14 14 14 13 14 15 15 14 15 14 15 15 14 14 14 13 12 12 12 12 12 12 11 10 11 11 11 11 10 9 8 9 9 9 8 8 8 8 8 8 8 8 8
20 19 19 20 18 17 17 17 15 7 3 5 4 5 6 7 8 9 10 11 13 13 15 14 14 15 15 14 15 15 14 13 12 12 12 12 12 12 12 12 12 11 11 10 11 10 11 10 10 10 9 9 9 9 8 8 8 8 8 8 9 8 9
18 18 18 18 17 16 16 15 15 14 13 9 3 2 5 7 7 9 10 11 12 13 13 13 14 15 15 15 15 14 13 13 12 12 12 12 12 12 12 12 12 11 11 11 11 10 10 10 10 10 10 10 9 9 8 8 7 10 15 13 10 9 9
17 17 17 16 16 16 15 15 15 14 14 13 11 9 5 0 3 6 9 9 10 12 13 13 14 14 15 16 14 14 13 12 12 12 13 13 12 11 12 12 11 11 11 11 11 11 10 10 10 11 10 10 10 10 9 8 9 15 16 16 17 11 9
17 17 16 16 15 14 16 15 15 15 14 13 11 10 9 8 4 3 7 6 7 9 10 12 13 14 15 14 13 13 14 13 12 13 13 12 13 12 12 11 11 12 12 11 12 11 10 11 11 11 10 10 10 10 10 9 12 16 16 17 17 15 11
13 14 15 16 15 14 14 14 13 13 14 11 12 10 9 7 7 6 2 5 7 6 9 10 12 12 12 12 13 13 13 12 13 13 13 13 13 12 12 12 12 12 12 13 12 10 11 12 11 11 11 10 10 11 11 10 14 16 17 17 18 18 15
12 12 13 15 15 14 12 12 12 12 12 11 12 11 9 6 7 7 4 3 1 5 3 5 7 9 11 11 12 13 13 13 13 14 14 13 13 12 13 13 13 13 12 11 11 12 12 12 13 11 11 11 11 10 10 11 14 17 17 18 18 19 16
10 12 13 12 17 17 15 14 15 15 15 13 13 11 10 9 9 6 6 3 2 2 6 7 6 2 1 7 11 12 12 13 14 14 13 13 13 13 13 13 12 13 12 11 12 12 12 12 12 12 11 11 11 10 11 11 16 16 18 18 19 19 16
9 9 11 11 11 14 17 15 15 14 14 12 11 11 10 11 9 8 6 5 2 2 4 5 7 8 8 4 2 7 10 13 13 13 13 13 13 13 13 13 13 13 12 11 11 11 10 10 11 12 12 11 11 11 12 12 17 17 18 19 18 18 11
9 8 9 11 11 10 10 13 13 13 13 13 12 11 10 11 10 8 7 5 3 2 1 2 5 7 7 8 10 9 7 10 12 13 13 13 13 14 14 13 13 12 11 12 12 12 12 12 11 11 12 12 12 13 13 12 15 18 19 19 19 13 9
8 8 9 8 9 10 9 9 10 11 11 13 14 14 12 11 10 9 7 7 5 2 1 1 2 2 2 6 9 10 9 8 10 12 13 13 14 14 14 13 12 12 12 13 13 13 13 12 11 12 12 13 14 14 13 13 14 18 19 19 19 16 12
10 9 9 10 10 11 11 10 11 10 9 8 10 11 11 11 11 9 7 8 7 6 3 2 2 4 5 5 5 7 10 10 10 12 13 13 14 13 14 14 14 13 12 12 12 12 11 12 12 12 11 12 13 16 17 14 14 17 19 20 19 17 11
11 11 10 10 10 10 10 9 9 9 10 11 11 11 10 9 8 8 7 6 9 8 5 3 2 3 5 6 7 8 10 12 14 16 15 14 14 12 13 12 11 11 12 12 11 11 11 11 11 13 12 12 13 13 15 15 13 13 19 20 20 21 14
9 9 11 12 11 12 11 10 9 10 10 9 11 12 10 9 9 8 8 7 6 9 9 9 9 8 7 5 5 8 10 11 14 18 16 15 14 13 12 11 12 12 12 12 11 11 11 12 12 12 12 12 12 13 13 13 14 13 19 20 21 22 19
9 9 10 10 11 11 10 9 9 9 8 8 9 11 10 10 8 7 7 5 6 9 10 10 9 8 8 7 8 8 7 7 11 14 14 14 13 13 13 12 12 12 13 11 11 12 13 12 11 12 12 12 12 12 13 13 18 13 16 20 21 21 23
8 9 9 11 12 11 10 9 9 8 8 8 8 8 8 9 9 7 6 6 7 9 9 10 9 9 9 9 9 8 8 7 9 12 11 11 13 14 14 12 12 13 12 12 12 12 13 13 12 12 11 11 11 11 12 12 12 19 14 18 21 22 22
7 8 8 8 9 11 12 10 9 9 9 7 7 8 7 7 8 9 9 7 8 8 7 8 9 9 9 7 8 8 8 9 9 11 11 13 13 13 14 13 13 12 11 12 12 11 12 11 11 11 12 12 11 10 10 10 11 13 18 15 21 20 23
7 8 8 8 8 9 10 10 11 9 9 8 8 8 8 6 7 8 9 9 8 8 8 8 9 9 8 8 7 8 8 9 9 10 11 12 13 13 13 13 12 11 11 11 11 12 12 12 11 12 12 11 11 11 10 10 10 10 13 19 19 22 23
6 7 7 6 7 8 8 10 9 8 9 9 8 9 7 8 7 9 9 10 9 9 9 9 8 8 8 9 8 8 9 10 9 10 11 13 12 14 13 13 13 13 12 12 12 13 13 12 11 12 12 12 11 10 10 9 9 11 10 12 16 17 21
7 7 7 7 7 8 8 9 10 10 10 10 9 9 9 8 7 7 8 10 11 11 10 9 9 8 8 8 9 9 8 9 8 8 10 12 11 12 11 11 11 12 11 12 13 13 12 12 11 11 11 12 11 10 9 9 10 11 11 9 10 10 12
8 6 7 6 5 6 6 6 7 10 11 10 10 10 10 9 9 8 8 9 10 10 9 9 8 9 9 10 9 8 8 8 9 10 8 10 11 11 11 11 12 12 13 13 13 13 12 12 12 13 13 12 11 10 10 11 11 12 12 11 10 10 10
8 8 7 6 6 4 6 6 6 7 9 9 8 9 9 10 9 9 10 10 10 9 10 10 10 10 9 9 9 8 7 7 7 6 7 8 10 11 12 13 13 13 14 15 14 15 15 14 14 14 13 12 12 12 12 12 14 14 11 11 14 14 11
9 8 7 6 5 5 7 7 5 6 8 8 8 8 9 10 9 9 10 11 10 10 9 10 9 8 8 8 8 8 8 8 8 6 6 7 8 9 9 11 15 13 14 13 17 20 20 17 15 14 12 13 12 13 14 15 15 13 17 19 19 18 19
11 9 7 5 4 6 6 7 6 4 5 6 8 8 9 9 8 9 9 9 10 10 10 9 8 6 6 7 8 9 9 8 7 7 6 7 8 8 9 8 7 4 4 5 6 13 18 18 19 16 16 14 12 13 19 18 13 14 17 17 17 19 19
11 9 7 4 4 5 6 7 5 5 6 5 6 7 8 9 8 8 9 9 9 9 10 9 8 7 7 7 8 9 9 7 7 7 6 6 7 8 8 9 9 9 3 1 4 8 12 17 18 16 16 18 17 12 10 13 14 14 15 17 17 18 19
Wind_Direction
192 195 199 198 198 198 196 193 191 189 189 189 189 188 186 185 185 184 187 189 192 192 191 188 189 190 194 197 198 197 198 196 195 199 197 198 199 194 192 197 197 202 199 202 211 208 215 195 197 201 196 202 206 211 217 217 216 219 215 212 208 207 212
195 197 197 198 199 199 199 195 192 190 190 191 190 189 188 188 185 186 189 189 191 192 189 191 190 192 194 197 196 197 197 199 199 203 202 199 195 198 196 196 198 202 202 210 208 212 194 204 196 200 203 203 210 209 210 215 218 219 216 202 198 212 207
197 196 196 197 199 198 198 196 194 193 191 190 190 189 191 191 188 187 186 188 192 193 190 191 192 192 194 195 195 199 200 199 199 202 204 205 200 195 194 195 202 202 208 207 206 206 199 197 200 200 201 206 210 210 213 216 220 217 222 209 198 198 201
196 198 198 197 197 197 196 196 195 195 194 192 191 192 193 192 190 188 187 188 190 191 192 194 192 193 193 193 196 198 201 202 201 202 207 208 208 198 186 197 202 208 205 209 209 203 205 194 196 200 201 204 210 211 211 219 220 214 217 209 211 206 205
198 199 196 194 196 196 196 196 196 195 195 194 193 193 193 192 189 189 191 191 190 191 192 191 193 195 195 194 195 197 199 200 202 204 207 208 207 197 196 198 200 201 207 209 205 201 202 196 200 198 204 201 208 204 212 218 223 216 212 206 216 207 209
199 196 195 196 197 197 197 197 196 194 193 192 192 192 192 190 190 191 192 192 194 195 192 191 193 193 196 197 198 199 199 201 202 203 203 204 200 200 203 204 199 203 204 207 196 199 198 197 199 200 203 204 204 206 208 211 220 216 216 204 216 206 200
206 199 196 198 198 197 196 197 196 194 194 194 191 189 188 189 191 194 191 193 193 192 193 194 195 194 198 195 200 198 199 200 200 203 202 203 203 207 210 208 205 204 207 196 200 194 196 199 199 198 201 201 202 205 205 209 214 213 212 210 217 215 202
208 208 206 200 198 196 196 196 194 193 194 193 189 187 188 190 192 192 193 194 193 193 194 193 195 196 197 196 197 200 201 201 200 201 201 203 203 207 211 209 208 206 196 197 208 192 200 203 203 198 196 196 201 203 206 207 211 209 201 213 221 223 202
201 204 207 205 199 195 194 193 191 190 190 190 190 189 188 189 192 193 193 193 193 193 196 196 196 196 195 195 197 201 202 200 200 199 201 204 206 211 211 211 211 203 199 205 206 200 202 206 205 200 195 199 200 200 203 203 207 204 202 214 218 222 219
205 203 206 208 209 204 198 192 186 184 188 189 191 190 189 191 193 193 193 193 192 196 196 195 196 196 196 198 201 200 199 200 201 199 201 205 208 211 213 211 211 205 208 210 207 205 211 207 207 200 196 200 201 200 202 202 203 202 205 212 214 220 224
276 231 206 190 195 200 195 188 186 189 187 188 190 191 190 191 192 193 194 193 194 197 196 195 194 194 196 198 200 200 200 202 199 200 202 206 208 212 213 212 210 206 209 210 214 213 208 212 206 204 196 200 201 200 202 203 201 202 207 212 213 216 220
14 16 2 332 227 205 197 192 191 191 189 188 189 190 191 191 192 194 194 195 194 194 193 195 194 195 196 197 199 201 202 202 201 202 202 204 206 210 211 211 211 207 207 207 212 213 213 210 207 205 205 205 203 201 204 203 200 202 207 209 210 212 218
18 23 22 17 14 357 350 245 214 205 196 193 190 191 192 191 192 192 193 194 193 193 192 193 193 195 197 198 200 201 203 202 203 203 204 204 206 207 209 211 211 209 210 205 208 210 213 213 212 210 207 210 207 206 204 204 203 204 206 208 206 208 210
13 18 15 19 23 19 10 358 23 149 216 206 199 197 198 197 195 193 191 192 192 190 190 192 193 196 197 198 201 203 203 204 203 204 204 204 204 205 208 209 211 213 212 207 208 210 211 213 212 213 209 213 211 212 207 204 203 206 207 206 205 204 209
9 10 9 16 17 15 15 14 359 355 127 158 177 195 200 199 200 199 197 195 191 189 192 189 191 195 198 200 203 204 203 202 203 204 204 204 203 205 207 208 210 212 212 211 213 213 213 213 212 212 212 214 213 213 209 205 206 203 203 204 206 205 208
7 5 8 9 8 11 11 5 7 11 9 13 12 178 191 184 188 195 197 196 191 193 190 185 192 194 197 201 203 202 201 201 201 201 202 203 204 205 205 207 208 210 212 214 215 216 213 212 212 213 213 212 213 212 210 211 209 207 203 201 203 204 209
7 1 1 1 1 7 6 5 6 5 9 12 9 1 2 327 215 199 202 195 193 192 189 187 192 196 198 202 201 200 199 199 201 199 202 203 204 204 205 206 206 208 211 213 215 216 214 212 213 215 215 213 211 210 212 213 214 208 203 204 205 202 205
8 359 354 352 354 359 5 2 2 1 360 355 354 8 8 358 339 192 193 187 196 192 188 191 195 197 200 201 199 199 199 199 199 201 202 201 204 204 204 205 206 209 209 211 213 214 213 215 215 215 215 215 213 212 212 215 214 207 204 204 205 204 205
6 359 352 346 346 351 2 360 354 357 350 348 351 353 353 358 5 6 322 199 182 175 184 194 197 200 201 200 200 201 199 198 200 201 203 203 202 203 202 204 207 209 209 211 211 210 213 216 215 216 214 214 214 216 214 218 212 208 204 204 203 205 206
1 350 353 345 337 346 353 352 354 352 349 341 345 346 342 353 5 346 339 352 45 141 141 172 198 201 201 201 203 201 198 199 200 202 204 202 202 202 203 203 207 208 209 210 208 210 214 214 217 217 214 214 215 217 217 218 217 207 205 204 203 203 202
355 348 349 345 339 342 349 349 346 349 349 345 342 341 342 349 355 349 344 353 71 91 129 118 111 114 209 222 212 204 202 201 200 202 202 202 203 203 204 205 207 207 208 208 209 210 212 213 215 216 215 215 213 216 218 222 217 208 204 205 203 203 198
345 352 341 335 336 339 340 344 342 338 335 331 336 338 339 341 340 346 341 331 322 156 152 154 156 157 149 165 241 257 225 205 202 203 203 203 203 203 204 204 204 206 205 208 211 212 212 215 215 215 215 215 214 215 221 223 214 208 205 204 204 198 196
332 341 337 329 338 336 327 328 333 333 333 332 336 333 339 339 337 341 342 328 336 0 70 163 194 191 175 165 167 187 232 247 217 202 203 203 204 205 205 203 204 206 202 207 209 209 210 211 212 213 213 213 212 214 220 224 214 206 206 204 201 187 199
326 331 337 331 320 316 329 328 327 335 340 333 331 336 334 333 330 338 351 347 318 326 339 238 264 312 250 200 177 171 171 215 247 230 205 204 206 206 206 206 206 205 200 204 206 210 209 207 211 212 212 212 214 213 218 224 216 202 206 204 195 186 195
335 336 330 328 324 328 331 335 332 330 335 337 332 329 322 322 319 324 3 350 333 310 286 253 220 203 212 218 209 188 179 185 208 234 227 211 211 207 206 205 204 204 201 206 208 211 208 207 210 211 212 213 215 214 215 223 220 202 202 203 194 190 200
329 332 324 327 328 326 323 332 332 335 348 342 332 324 327 326 323 333 353 359 321 309 304 317 278 239 227 215 216 217 202 189 199 217 220 217 214 210 208 207 205 204 203 205 207 209 208 209 210 212 213 211 213 216 215 220 222 205 201 200 196 191 196
320 318 318 324 328 331 332 340 341 332 339 333 329 333 337 342 342 345 353 1 345 333 355 349 344 334 323 295 260 231 217 212 203 209 212 210 210 209 208 204 205 203 203 205 206 208 210 211 210 213 216 213 213 216 215 216 219 213 196 201 195 195 195
316 318 322 320 327 336 337 336 330 320 327 333 334 337 339 344 346 344 342 339 344 342 333 334 329 323 313 307 298 291 273 230 212 210 210 208 204 205 207 206 204 203 203 204 203 206 210 211 212 214 216 217 215 216 217 214 212 217 200 198 197 195 197
316 317 321 325 325 330 337 331 324 319 328 330 334 335 334 340 340 337 332 333 339 330 326 324 322 317 313 308 309 301 288 270 230 214 210 206 203 204 206 202 201 203 201 201 203 206 209 211 212 215 218 218 217 217 216 215 213 212 207 197 197 197 199
303 306 308 307 308 317 333 327 318 323 325 324 330 328 325 338 338 331 332 331 327 316 320 320 320 313 306 309 310 303 290 271 247 222 211 206 202 204 205 201 201 200 198 199 201 204 208 211 211 215 219 220 220 217 216 215 217 209 209 199 197 199 200
293 296 298 301 305 313 315 318 317 322 320 323 331 329 322 327 333 332 326 324 317 319 322 322 316 310 302 310 309 298 290 272 253 230 213 207 201 201 203 202 197 199 200 199 203 206 209 210 208 213 216 218 220 219 215 213 213 216 206 204 196 200 202
279 281 288 294 298 310 317 313 308 312 318 320 330 329 325 325 332 334 327 320 326 327 330 320 312 299 301 304 301 294 289 280 255 234 218 208 203 204 201 197 194 198 197 198 203 206 208 209 208 213 214 218 219 218 216 210 210 217 209 201 203 202 205
275 269 284 293 290 305 314 317 313 320 326 321 331 334 328 325 329 327 326 331 331 331 325 316 306 302 302 300 299 292 283 273 260 236 219 209 205 205 202 199 197 199 200 200 204 207 210 210 208 213 214 217 217 215 214 212 214 214 213 194 195 200 205
279 271 269 271 271 283 290 300 303 314 324 325 329 330 327 323 327 331 334 333 331 327 322 317 308 302 304 301 295 286 290 290 257 236 218 208 203 201 201 199 198 199 202 202 203 203 209 208 210 211 211 213 210 210 211 217 218 215 211 200 189 197 192
278 265 258 275 281 280 285 290 300 307 315 317 324 324 322 322 324 333 336 341 340 333 322 317 308 304 306 306 301 299 301 299 290 240 221 209 206 207 201 196 197 204 210 210 203 202 202 205 210 210 209 209 206 204 212 217 221 221 203 198 191 189 188
280 270 259 252 262 277 278 283 292 310 316 322 329 324 318 320 323 332 335 337 338 332 320 315 308 306 312 313 310 309 312 318 319 287 240 217 209 209 217 220 212 211 210 212 212 211 211 202 206 206 203 208 211 204 209 214 221 203 184 198 192 186 185
279 275 264 260 277 282 280 285 305 317 318 326 329 326 320 315 317 328 332 336 328 324 316 305 309 315 318 316 311 310 310 310 316 320 274 235 216 209 207 207 232 263 265 264 251 219 216 216 220 213 204 203 212 216 220 227 219 190 189 191 185 185 190
265 260 258 252 251 268 278 286 299 318 320 323 325 320 317 310 313 324 327 329 327 323 312 307 320 316 320 316 310 307 310 307 307 313 312 270 229 212 203 206 209 233 262 348 281 280 229 219 220 218 213 211 212 212 223 224 218 193 184 187 185 189 193